CAPE
1296 1252 1358 1416 1432 1456 1715 1974 1723 1712 1478 1447 1495 1584 1618 1588 1524 1322 1320 1161 1071 896 844 1012 962 902 748 733 863 922 1010 1003 995 1140 1140 1134 1172 1084 1169 1217 1176 662 480 368 320 202 126 56 61 56 71 16 1 2 3 18 2 26 27 18 17 15 14 13 14 20 21 19 17 16 14 10 11 24 19 20 18 14 49 82 212 368 426 458 458
1370 1362 1334 1486 1464 1567 1563 1530 1559 1465 1628 1663 1496 1514 1523 1437 1598 1502 1408 1293 1215 1130 1018 868 894 1009 810 768 992 1028 1074 1007 794 714 775 1028 1112 1128 1122 1132 1136 819 730 832 282 223 132 67 159 99 71 27 9 2 10 44 30 35 28 17 12 6 7 7 10 13 19 15 8 19 16 11 10 16 20 20 19 14 12 23 104 245 408 447 413
1322 1237 1196 1308 1274 996 1126 1211 1385 1436 1490 1471 1546 1431 1142 1171 1214 1249 1308 1236 1233 1280 1112 994 892 756 1032 772 952 1010 1035 1096 948 716 711 767 861 1119 1043 964 1082 802 808 759 492 358 229 149 200 241 229 84 34 26 66 68 36 38 23 15 7 4 5 5 7 13 12 14 20 16 16 12 11 12 23 17 17 11 7 36 57 224 329 354 390
1184 1190 1164 1163 1263 1165 1197 1030 1023 987 1056 1083 1078 1247 1080 1044 1204 1099 951 1022 1077 1232 1226 1268 1192 968 1130 913 1080 1034 1078 1167 1146 1022 730 701 698 964 1014 936 1132 861 813 760 576 675 354 265 162 254 200 55 106 44 167 102 61 28 7 12 1 3 2 4 6 7 6 15 20 13 9 10 10 7 14 25 16 14 9 6 57 160 261 318 314
1382 1144 1076 1061 948 934 940 1017 1044 836 878 648 662 811 1078 1101 1105 897 1160 1098 1096 1146 1247 1272 1393 1357 1353 1132 1236 1122 929 1062 1154 1086 1058 856 592 583 944 976 1198 1091 564 677 711 543 390 303 257 289 278 11 8 113 126 120 50 8 8 2 3 0 2 5 8 4 11 23 22 9 5 11 5 7 6 26 24 13 7 4 12 45 133 216 220
1160 1034 976 876 827 753 761 753 758 604 599 598 650 808 924 973 1042 788 870 910 1069 1222 1278 1330 1425 1409 1316 1259 1131 1142 1187 1091 1093 1025 1104 1009 820 599 889 1083 832 1059 851 595 654 561 525 565 349 306 263 180 15 8 256 107 20 10 5 2 2 3 4 6 5 6 10 16 8 7 10 8 10 6 7 20 27 15 8 2 0 8 64 105 180
1014 846 798 742 753 716 681 609 498 510 518 553 595 610 878 983 904 958 851 882 933 941 991 1205 1246 1271 1252 1129 1080 984 1121 1125 1105 964 904 937 950 764 846 570 626 846 787 653 576 632 694 570 681 563 438 180 48 8 150 35 12 10 7 11 9 6 7 6 2 4 8 4 6 10 12 12 12 11 14 20 25 18 8 2 0 0 16 46 103
963 807 744 746 835 705 655 617 526 544 590 544 689 697 742 764 807 780 744 905 1027 978 906 923 894 1054 1195 1208 1117 959 1142 1216 1075 1006 1037 1112 923 810 804 737 746 768 763 632 523 260 690 579 440 310 274 223 40 6 38 17 10 10 6 5 4 8 11 4 3 6 6 4 9 14 14 13 15 20 25 26 19 17 10 3 0 0 0 12 24
964 865 836 771 875 729 663 703 635 485 656 911 800 814 762 738 742 838 728 775 910 873 874 795 870 877 904 814 880 954 857 1110 1201 1067 989 800 900 849 705 567 848 757 912 708 608 523 600 580 420 199 137 402 44 3 24 13 10 10 5 6 6 7 12 4 1 4 8 15 7 15 15 11 17 27 21 20 18 15 14 7 2 0 0 2 6
1071 1044 970 948 861 805 861 764 671 722 755 697 798 784 698 848 1008 808 769 745 708 746 782 765 726 702 745 889 865 835 800 902 960 862 874 804 782 589 444 528 763 792 753 736 610 487 469 363 379 263 137 157 244 8 6 14 16 10 7 12 6 9 10 6 0 3 13 9 13 20 17 19 30 24 17 24 23 15 11 8 4 0 1 1 1
1168 1129 1032 911 814 735 657 767 683 698 682 678 668 726 803 782 834 926 876 748 622 630 639 573 515 524 600 710 833 731 670 724 725 707 546 497 628 490 676 534 555 612 763 805 770 634 465 537 368 102 52 69 211 188 26 8 9 7 7 5 7 8 11 5 8 6 8 6 20 23 17 21 29 22 23 23 21 16 13 14 10 9 6 2 4
1004 938 860 823 902 926 795 743 623 516 682 576 644 831 602 708 839 890 961 825 798 674 508 467 475 616 563 552 638 769 650 497 472 570 573 667 627 646 544 360 310 333 708 697 741 647 485 456 437 243 138 92 6 2 11 12 9 4 5 4 7 11 10 5 18 13 7 11 25 26 22 28 28 25 29 28 21 22 21 21 18 16 14 10 13
1182 1171 1185 1002 973 933 754 599 567 578 700 535 656 606 522 539 617 639 612 745 761 896 746 538 406 440 651 605 671 731 746 520 594 607 625 600 648 555 476 528 320 226 479 480 502 420 522 517 482 296 239 79 11 3 2 10 15 8 5 3 6 12 9 6 19 14 4 16 27 29 29 32 30 33 29 30 28 25 20 21 19 15 14 13 12
950 1034 950 915 901 781 760 706 733 640 462 478 519 669 530 539 553 555 705 756 626 857 985 671 445 278 370 486 590 746 610 705 666 536 557 526 609 631 565 511 612 556 304 202 340 429 380 392 471 367 279 111 7 5 5 6 11 8 4 9 6 9 9 10 20 16 8 16 27 28 32 31 37 28 28 26 22 27 23 21 16 14 17 21 25
838 745 700 588 599 569 506 512 462 499 519 556 693 630 616 538 574 878 597 879 752 889 974 754 486 720 734 437 453 553 695 572 625 655 588 578 589 584 609 583 537 572 325 268 242 204 106 332 323 413 332 205 27 4 5 4 6 6 7 6 7 5 8 11 16 24 29 20 24 28 26 28 33 28 26 25 20 30 28 18 18 18 24 27 27
511 502 425 409 355 302 299 291 273 336 390 447 630 583 619 706 959 844 651 610 679 988 1275 1105 781 422 454 338 700 343 409 600 682 754 643 644 676 657 614 525 571 479 600 221 188 160 298 280 84 226 188 215 61 5 4 6 2 1 3 9 6 4 6 11 15 25 36 24 22 28 25 25 25 25 21 22 33 26 26 19 14 13 21 22 20
332 257 244 250 235 190 197 192 195 240 236 292 362 398 364 481 492 592 572 691 508 729 944 1247 963 669 472 425 439 336 457 716 684 674 770 712 711 710 694 624 561 622 654 504 263 149 100 119 200 391 189 203 45 13 6 4 4 2 1 13 8 6 6 12 16 21 22 33 25 32 29 27 22 24 23 32 31 27 19 20 15 19 21 20 17
172 149 97 92 83 75 89 100 136 151 143 147 190 251 237 298 243 257 314 486 592 559 486 930 1180 974 675 712 612 954 1053 668 536 485 1173 591 761 680 795 716 646 579 577 488 232 124 129 139 229 132 112 144 108 29 7 5 6 3 1 0 2 2 5 6 7 14 19 22 19 23 34 25 16 16 18 26 30 25 28 23 14 11 11 18 20
37 21 15 16 26 25 21 26 34 56 73 121 146 161 192 207 188 238 234 240 413 295 364 474 950 1190 1017 858 562 328 447 548 694 732 674 722 611 641 714 661 681 575 436 591 505 278 228 249 152 164 126 206 166 76 22 4 1 0 1 0 0 0 0 0 4 14 8 19 38 62 50 32 20 16 20 26 30 26 24 26 20 12 6 5 10
5 4 8 11 28 30 28 48 40 54 29 56 59 99 137 159 202 258 192 286 372 458 241 177 507 680 1278 721 413 223 321 548 480 662 728 635 553 669 643 745 688 609 543 553 430 276 90 91 129 187 246 105 252 156 25 4 5 1 1 0 0 0 0 0 0 2 12 41 30 32 43 17 15 18 12 22 22 22 21 18 24 13 10 2 1
6 7 13 20 29 61 32 42 64 76 74 73 112 143 151 204 173 196 163 265 370 466 552 606 718 608 700 757 638 243 280 204 301 379 348 416 450 572 652 675 785 724 642 566 616 384 128 174 82 127 187 90 192 77 43 10 2 2 0 0 0 0 0 0 0 0 9 2 13 31 64 60 20 31 12 7 4 16 24 23 18 8 7 2 2
43 24 40 15 31 55 64 76 84 103 157 161 240 280 215 204 239 152 214 220 445 401 441 594 385 710 646 572 526 628 343 132 123 333 367 373 460 630 822 1148 931 747 838 687 652 403 306 152 112 92 99 160 142 122 63 44 8 1 0 0 0 0 0 0 0 0 1 1 6 33 29 49 61 28 5 1 7 12 26 29 14 8 3 0 0
11 30 19 7 43 92 103 88 99 146 205 208 225 235 269 282 318 239 186 500 609 467 530 610 608 194 513 655 552 529 604 516 213 325 299 335 312 255 511 714 904 1042 901 655 531 530 678 322 121 71 76 152 190 152 67 71 44 0 0 0 0 0 0 0 0 0 0 0 6 19 140 252 214 48 31 1 1 2 33 36 19 8 1 0 0
19 36 14 26 56 59 106 64 134 183 164 198 224 218 208 259 292 286 360 316 373 417 302 593 574 615 48 675 615 677 598 706 666 449 324 356 288 364 510 721 766 666 587 513 480 587 641 338 160 97 88 137 192 176 51 78 68 39 0 0 0 0 0 0 0 0 0 2 0 19 92 43 56 47 15 8 2 1 12 11 12 9 5 0 1
8 17 42 25 26 38 68 78 80 78 51 68 104 145 174 232 244 223 294 192 535 307 118 329 485 229 595 686 764 484 229 912 1182 736 528 548 350 369 514 337 296 835 984 641 480 599 774 636 388 116 53 109 188 184 59 69 103 68 61 52 29 0 0 0 0 0 0 1 0 0 54 81 131 116 110 1 0 0 2 8 2 0 0 0 1
9 11 9 11 6 6 5 6 3 7 10 10 15 46 96 140 145 166 191 253 309 318 454 129 464 648 788 700 753 641 799 980 854 733 575 461 419 418 474 553 602 520 734 644 358 500 716 1035 584 226 97 118 133 266 148 52 110 90 78 70 45 14 0 0 0 0 0 0 1 0 0 6 6 39 18 28 8 0 0 0 0 0 0 0 0
16 18 9 4 1 1 0 1 1 2 3 3 2 4 12 51 116 134 174 227 227 183 427 431 222 389 511 668 256 694 875 631 807 553 828 427 426 494 475 271 257 343 431 602 569 166 452 604 382 231 136 128 122 177 228 198 138 116 104 75 59 33 0 0 0 0 0 0 0 0 0 8 10 18 37 31 23 0 0 0 0 0 0 0 0
15 4 1 1 0 1 0 2 2 2 2 2 2 2 5 13 121 104 116 112 147 194 403 361 254 290 300 368 648 795 907 880 708 397 267 460 428 451 427 196 75 252 422 478 542 393 348 206 402 356 253 131 109 92 239 215 192 136 101 82 53 57 17 0 0 0 0 0 0 0 0 0 0 14 40 19 22 0 0 0 0 0 0 0 0
0 0 0 1 1 2 3 3 2 2 1 0 0 2 1 20 66 70 62 66 120 163 158 336 216 253 228 138 718 800 811 862 864 638 389 464 522 406 399 237 328 200 252 248 455 583 581 112 338 391 373 255 112 110 151 223 215 172 132 107 48 77 57 0 0 0 0 0 0 0 0 0 0 11 0 49 0 0 0 0 0 0 0 0 0
0 1 1 1 1 2 2 1 2 1 0 0 0 0 1 4 20 83 91 63 86 164 158 120 136 159 323 389 274 336 484 673 583 544 530 483 479 120 192 377 230 101 128 248 219 593 369 330 384 626 372 438 203 103 98 157 206 189 171 81 14 89 107 62 0 0 0 0 0 0 0 0 0 6 3 0 0 13 0 0 0 0 0 0 0
1 2 2 1 1 1 1 1 1 0 0 1 1 2 2 4 15 47 64 60 66 39 95 58 75 83 82 179 164 216 338 363 379 384 550 414 451 454 156 212 244 208 189 113 70 99 413 296 420 696 653 424 325 210 79 80 126 182 153 41 45 108 122 95 68 14 0 0 0 0 0 0 0 0 14 5 20 24 0 0 0 0 0 0 0
1 2 1 1 0 0 1 1 0 0 0 2 2 0 2 13 40 31 30 14 13 13 15 12 9 12 8 6 38 37 14 82 172 307 529 508 300 133 241 343 357 346 174 135 61 37 360 532 617 475 530 456 473 329 245 160 122 120 197 149 90 108 88 104 78 67 0 0 0 0 0 0 0 0 0 6 7 17 18 0 0 0 0 0 0
2 2 1 1 0 0 0 0 0 0 0 0 0 1 6 6 10 13 8 4 4 6 5 4 5 7 6 9 38 51 39 14 34 54 93 96 107 101 188 218 224 374 265 138 77 1 2 30 184 216 190 281 310 254 219 149 87 54 119 161 179 144 96 94 80 74 49 18 0 0 0 0 0 0 0 0 12 20 12 0 0 0 0 0 0
0 1 0 0 0 0 0 0 0 0 0 0 0 2 2 2 2 4 5 4 4 4 4 4 4 6 7 5 19 29 43 47 45 29 6 38 58 63 94 90 47 11 191 147 18 8 6 13 19 39 100 121 240 211 185 173 86 43 58 57 96 167 138 100 94 90 55 53 5 0 0 0 0 0 0 0 0 16 5 1 35 0 0 0 0
0 0 0 0 0 0 1 0 0 0 0 0 0 1 1 1 1 2 2 2 2 2 2 3 4 5 5 7 6 5 14 39 45 42 24 13 58 183 190 258 71 107 42 34 98 43 43 47 51 54 80 115 95 204 169 201 118 89 76 74 108 158 177 181 132 114 89 70 52 0 0 0 0 0 0 0 50 18 6 7 0 0 0 0 0
0 0 0 0 0 0 0 0 0 0 0 0 0 0 0 0 0 0 0 1 1 1 1 1 3 4 5 5 5 5 4 3 3 22 35 33 17 102 148 167 34 42 35 10 5 8 28 6 9 52 92 133 127 127 224 191 170 104 79 90 103 139 184 191 186 138 134 101 84 26 0 0 0 13 36 26 12 31 0 2 12 0 0 0 0
0 0 0 0 0 0 0 0 0 0 0 0 0 0 0 0 0 0 0 0 0 0 0 0 3 4 4 4 4 4 4 3 3 3 4 13 9 11 17 37 54 57 47 76 18 12 22 27 57 48 94 159 161 326 373 276 164 136 116 106 113 126 129 148 210 155 122 102 107 75 4 0 0 0 35 59 76 27 0 0 4 5 3 1 1
0 0 0 0 0 0 0 0 0 0 0 0 0 0 0 0 0 0 0 0 0 0 0 0 0 0 1 2 2 5 4 3 4 2 3 4 6 4 19 17 14 48 53 152 30 22 24 68 105 123 51 83 98 119 182 149 143 137 125 125 111 110 114 98 128 145 105 118 129 101 68 0 0 0 3 58 107 63 31 4 8 7 6 2 2
0 0 0 0 0 0 0 0 0 0 0 0 0 0 0 0 1 1 1 0 0 0 1 0 0 0 3 3 2 4 7 5 3 2 3 4 4 4 4 3 16 15 69 56 56 30 62 35 64 82 58 48 60 90 137 126 126 101 64 64 97 99 98 84 90 119 136 144 148 112 96 19 0 0 0 56 95 89 48 25 18 7 10 1 1
0 0 0 0 0 0 0 0 0 0 0 0 0 0 1 0 0 0 0 0 0 0 0 0 0 0 0 1 2 2 5 6 3 4 4 2 3 3 4 3 3 6 10 28 34 20 33 27 46 91 142 57 64 69 80 103 97 89 69 59 66 87 100 98 86 102 166 158 181 152 133 106 11 0 0 44 85 87 54 46 43 24 25 25 0
0 0 0 0 0 1 0 0 0 0 0 0 0 0 0 0 0 0 0 0 0 0 0 0 0 0 0 0 1 2 2 1 2 1 0 2 3 2 2 2 3 4 4 5 12 6 10 26 30 45 58 56 46 55 53 43 66 56 46 31 60 60 55 56 82 87 123 164 174 167 125 110 37 6 0 30 60 56 42 27 35 27 38 45 0
0 0 0 0 0 0 0 0 0 0 0 0 0 0 0 0 0 0 0 0 0 0 0 0 0 0 0 0 0 0 0 0 3 2 0 1 0 1 3 3 3 2 3 4 4 8 9 18 28 26 16 11 9 11 7 16 10 25 49 69 66 54 42 48 64 74 112 135 148 164 174 160 90 29 20 14 45 51 43 28 13 2 16 28 4
0 0 0 0 0 0 0 0 0 0 0 0 0 0 0 0 0 0 0 0 0 0 0 0 0 0 0 0 0 0 0 0 0 2 0 0 1 0 0 0 0 1 3 4 5 7 9 12 20 18 14 19 17 19 16 18 27 27 18 18 56 76 62 66 58 62 101 128 175 161 164 132 97 48 27 27 30 33 48 25 0 0 11 16 0
0 0 0 0 0 0 0 0 0 0 0 0 0 0 0 0 0 0 0 0 0 0 0 0 0 0 0 0 0 0 0 0 0 0 1 1 0 0 0 0 0 0 0 0 1 5 5 4 6 12 17 11 4 6 14 8 10 20 27 29 10 22 61 101 93 79 85 83 124 168 184 162 131 71 40 37 47 50 48 59 29 0 0 0 4
0 0 0 0 0 0 0 0 0 0 0 0 0 0 0 0 0 0 0 0 0 0 0 0 0 0 0 0 0 0 0 0 0 0 0 0 0 0 0 0 0 0 0 0 0 0 5 4 3 2 3 3 2 2 4 12 14 16 20 21 20 20 12 39 69 70 89 97 91 142 182 186 144 103 62 62 58 51 51 47 31 56 0 0 0
0 0 0 0 0 0 0 0 0 0 0 0 0 0 0 0 0 0 0 0 0 0 0 0 0 0 0 0 0 0 0 0 0 0 0 0 0 0 0 0 0 0 0 0 0 0 0 2 3 4 2 3 3 3 1 0 1 4 12 20 21 25 20 19 22 28 65 99 98 120 169 165 174 150 92 63 68 50 31 15 52 38 0 11 0
0 0 0 0 0 0 0 0 0 0 0 0 0 0 0 0 0 0 0 0 0 0 0 0 0 0 0 0 0 0 0 0 0 0 0 0 0 0 0 0 0 0 1 0 0 1 2 1 1 2 0 0 1 0 2 2 2 0 2 7 11 14 17 16 19 20 24 52 64 112 140 138 167 161 111 77 54 65 62 61 49 16 19 17 41
0 0 0 0 0 0 0 0 0 0 0 0 0 0 0 0 0 0 0 0 0 0 0 0 0 0 0 0 0 0 0 0 0 0 0 0 0 0 0 0 0 0 0 0 0 1 0 0 0 0 0 0 0 0 0 0 1 3 2 1 2 11 13 15 10 9 19 23 22 15 32 148 183 156 97 66 55 72 72 35 53 51 38 47 26
0 0 0 0 0 0 0 0 0 0 0 0 0 0 0 0 0 0 0 0 0 0 0 0 0 0 0 0 0 0 0 0 0 0 0 0 0 0 1 1 2 1 2 0 0 0 0 0 0 0 0 0 0 0 0 0 0 0 0 0 1 1 1 2 3 4 2 8 18 28 10 13 31 52 79 66 54 41 12 10 2 52 62 78 59
0 0 0 0 0 0 0 0 0 0 0 0 0 0 0 0 0 0 0 0 0 0 0 0 0 0 0 0 0 0 0 0 0 0 0 0 0 0 0 0 0 1 0 0 0 0 0 0 0 0 0 0 0 0 0 0 0 0 0 1 2 2 0 2 1 0 0 2 0 1 4 18 34 56 30 10 7 6 25 41 25 23 10 29 55
0 0 0 0 0 0 0 0 0 0 0 0 0 0 0 0 0 0 0 0 0 0 0 0 0 0 0 0 0 0 0 0 0 0 0 0 0 0 0 0 0 0 0 0 0 0 0 0 0 1 0 0 0 0 0 0 0 0 0 0 2 2 2 2 1 4 5 16 20 33 23 13 4 11 16 21 40 32 45 34 28 14 13 44 69
Wind_Speed
16 15 15 15 15 15 16 18 19 19 19 19 20 19 19 19 19 17 18 17 16 14 14 14 16 17 17 17 18 17 17 20 22 21 19 17 17 16 18 15 17 19 15 14 14 13 13 nan nan nan nan nan nan nan nan nan nan nan nan nan nan nan nan nan nan nan nan nan nan nan nan nan nan nan nan nan nan nan nan nan 11 11 11 12 13
15 16 15 15 15 14 15 16 16 18 18 17 19 19 18 17 17 17 17 18 18 18 17 15 15 18 18 17 19 18 17 18 22 22 21 20 19 18 20 15 16 18 16 13 14 13 13 nan 14 nan nan nan nan nan nan nan nan nan nan nan nan nan nan nan nan nan nan nan nan nan nan nan nan nan nan nan nan nan nan nan 11 12 12 12 14
16 15 16 15 15 14 14 14 15 16 17 17 18 19 17 16 16 15 14 15 16 17 18 17 16 17 19 18 18 18 17 18 20 22 22 22 21 20 20 19 15 16 16 15 16 13 14 11 11 14 12 nan nan nan nan nan nan nan nan nan nan nan nan nan nan nan nan nan nan nan nan nan nan nan nan nan nan nan nan nan nan 12 13 14 15
15 15 15 15 14 14 15 15 16 16 16 17 17 18 18 16 16 16 15 15 16 16 17 18 18 17 18 18 19 18 18 18 19 21 21 22 22 22 21 20 17 15 15 16 17 12 13 12 11 13 12 nan 12 nan 13 12 nan nan nan nan nan nan nan nan nan nan nan nan nan nan nan nan nan nan nan nan nan nan nan nan nan 12 13 15 16
15 15 15 15 15 14 15 15 16 16 16 15 14 17 19 19 18 18 18 18 18 17 17 17 18 18 18 17 18 18 18 18 19 21 22 23 24 23 22 19 17 18 15 16 17 14 12 11 12 11 12 nan nan 14 10 13 nan nan nan nan nan nan nan nan nan nan nan nan nan nan nan nan nan nan nan nan nan nan nan nan nan nan 13 15 17
16 15 16 15 15 15 15 15 16 15 14 14 15 17 19 20 21 21 20 19 20 20 20 18 18 19 19 18 18 18 19 19 19 21 23 22 24 24 23 21 18 17 17 16 16 16 13 10 10 10 11 12 nan nan 12 14 nan nan nan nan nan nan nan nan nan nan nan nan nan nan nan nan nan nan nan nan nan nan nan nan nan nan nan 14 16
17 16 16 16 16 16 16 17 16 15 15 15 15 16 18 19 21 22 22 21 21 22 22 21 19 18 18 18 18 18 20 21 21 20 21 21 23 24 24 22 20 19 18 18 19 17 15 11 10 9 8 11 nan nan 11 nan nan nan nan nan nan nan nan nan nan nan nan nan nan nan nan nan nan nan nan nan nan nan nan nan nan nan nan nan 14
17 17 16 16 15 15 16 16 16 15 15 14 15 16 18 19 20 21 22 22 23 24 25 23 23 21 21 20 18 19 20 22 23 22 21 22 22 24 25 23 22 20 18 18 19 19 18 14 11 11 10 12 nan nan nan nan nan nan nan nan nan nan nan nan nan nan nan nan nan nan nan nan nan nan nan nan nan nan nan nan nan nan nan nan nan
17 17 17 16 15 15 14 14 15 15 14 15 15 17 17 19 20 20 22 23 24 23 24 25 25 24 23 22 20 20 19 21 24 25 25 24 24 25 25 23 24 22 21 18 19 19 20 16 14 12 13 14 nan nan nan nan nan nan nan nan nan nan nan nan nan nan nan nan nan nan nan nan nan nan nan nan nan nan nan nan nan nan nan nan nan
18 18 17 16 15 14 13 13 14 14 15 15 15 16 17 18 20 22 23 24 25 25 25 25 27 27 26 25 23 21 19 21 23 25 26 27 27 25 24 23 24 23 21 20 19 20 18 18 14 13 12 13 14 nan nan nan nan nan nan nan nan nan nan nan nan nan nan nan nan nan nan nan nan nan nan nan nan nan nan nan nan nan nan nan nan
17 17 16 15 14 13 13 13 13 13 14 14 15 16 17 18 19 21 24 25 26 27 27 28 27 27 26 26 27 24 21 20 22 24 26 25 25 25 25 23 22 23 21 21 21 19 19 17 15 11 nan nan 14 13 nan nan nan nan nan nan nan nan nan nan nan nan nan nan nan nan nan nan nan nan nan nan nan nan nan nan nan nan nan nan nan
16 16 15 14 14 14 14 13 13 13 14 14 15 18 17 18 19 21 22 25 29 30 31 30 29 29 28 28 28 27 25 23 21 23 25 25 25 27 25 22 21 21 20 19 20 19 18 17 15 14 13 nan nan nan nan nan nan nan nan nan nan nan nan nan nan nan nan nan nan nan nan nan nan nan nan nan nan nan nan nan nan nan nan nan nan
16 16 15 14 14 15 15 14 14 14 14 15 15 16 18 19 20 22 22 23 26 30 33 33 32 32 34 31 29 28 28 25 22 23 24 25 25 26 25 23 21 21 22 21 20 20 20 19 19 17 16 nan nan nan nan nan nan nan nan nan nan nan nan nan nan nan nan nan nan nan nan nan nan nan nan nan nan nan nan nan nan nan nan nan nan
17 16 15 15 15 15 15 15 15 15 15 16 17 19 20 22 23 24 28 27 27 30 34 38 37 35 32 31 31 33 30 27 25 23 23 25 24 24 23 22 21 21 22 23 22 21 19 20 21 21 19 17 nan nan nan nan nan nan nan nan nan nan nan nan nan nan nan nan nan nan nan nan nan nan nan nan nan nan nan nan nan nan nan nan nan
17 17 16 16 15 15 15 15 14 15 17 18 19 19 21 23 25 27 27 32 32 34 37 40 35 37 34 31 28 28 32 31 27 23 23 24 24 22 23 23 20 20 21 24 23 21 19 20 20 21 21 19 nan nan nan nan nan nan nan nan nan nan nan nan nan nan nan nan nan nan nan nan nan nan nan nan nan nan nan nan nan nan nan nan nan
19 19 18 17 16 15 15 15 15 16 17 18 19 20 21 22 26 28 30 30 34 36 40 40 39 36 34 34 33 30 23 26 29 28 24 22 23 22 22 21 22 20 20 19 21 22 23 26 nan 19 20 21 nan nan nan nan nan nan nan nan nan nan nan nan nan nan nan nan nan nan nan nan nan nan nan nan nan nan nan nan nan nan nan nan nan
21 20 19 18 18 17 16 16 16 17 18 19 19 19 20 22 23 27 31 33 33 34 36 41 40 38 32 33 34 31 25 25 28 27 29 25 22 21 21 20 22 22 21 18 20 22 24 24 22 25 24 20 nan nan nan nan nan nan nan nan nan nan nan nan nan nan nan nan nan nan nan nan nan nan nan nan nan nan nan nan nan nan nan nan nan
21 20 nan nan nan nan nan 17 17 18 19 19 20 21 22 23 25 27 27 30 33 35 33 34 35 34 35 35 34 27 28 33 33 29 36 28 26 24 21 20 21 22 21 20 19 20 22 23 25 25 23 22 19 nan nan nan nan nan nan nan nan nan nan nan nan nan nan nan nan nan nan nan nan nan nan nan nan nan nan nan nan nan nan nan nan
nan nan nan nan nan nan nan nan nan nan nan 21 21 21 22 23 25 27 29 31 33 34 33 29 30 32 33 36 35 31 27 27 26 28 24 28 28 26 22 21 20 20 19 20 19 20 22 26 26 23 25 27 21 nan nan nan nan nan nan nan nan nan nan nan nan nan nan nan nan nan nan nan nan nan nan nan nan nan nan nan nan nan nan nan nan
nan nan nan nan nan nan nan nan nan nan nan nan nan nan 23 23 25 26 29 32 33 34 31 29 29 29 36 33 34 29 22 24 26 24 25 23 23 26 24 23 22 20 18 17 18 22 nan nan 26 26 28 26 23 23 nan nan nan nan nan nan nan nan nan nan nan nan nan nan nan nan nan nan nan nan nan nan nan nan nan nan nan nan nan nan nan
nan nan nan nan nan nan nan nan nan nan nan nan 23 23 22 23 26 28 29 31 33 34 34 31 30 27 28 29 31 32 27 24 27 26 25 22 19 19 21 25 24 20 19 19 19 21 22 24 nan 26 26 nan 25 nan nan nan nan nan nan nan nan nan nan nan nan nan nan nan nan nan nan nan nan nan nan nan nan nan nan nan nan nan nan nan nan
nan nan nan nan nan nan nan nan nan 21 21 21 22 21 21 22 23 25 28 30 34 33 33 32 29 28 27 25 24 26 28 28 27 23 22 19 17 19 22 24 23 21 21 21 21 19 21 23 23 nan nan 28 29 27 nan nan nan nan nan nan nan nan nan nan nan nan nan nan nan nan nan nan nan nan nan nan nan nan nan nan nan nan nan nan nan
nan nan nan nan nan nan 20 nan nan 21 21 21 21 20 20 21 21 22 25 30 33 32 33 31 28 24 24 25 23 21 21 23 24 25 22 20 19 15 17 19 20 19 21 21 24 20 21 22 22 nan nan 30 30 29 nan nan nan nan nan nan nan nan nan nan nan nan nan nan nan nan 21 24 23 nan nan nan nan nan nan nan nan nan nan nan nan
nan nan nan nan nan nan 20 nan 22 22 21 21 21 20 20 21 22 24 26 27 30 31 32 31 24 24 nan 24 20 19 18 17 20 21 21 18 17 13 13 18 17 17 22 24 21 21 21 22 22 nan nan 28 29 28 nan nan nan nan nan nan nan nan nan nan nan nan nan nan nan nan nan nan nan nan nan nan nan nan nan nan nan nan nan nan nan
nan nan nan nan nan nan nan nan nan nan nan nan 20 19 19 20 21 22 24 26 30 29 30 28 24 21 22 22 20 17 14 14 14 14 16 17 14 12 15 16 13 17 22 25 22 21 21 22 24 22 nan 30 28 29 nan nan 25 nan nan nan nan nan nan nan nan nan nan nan nan nan nan nan 22 24 24 nan nan nan nan nan nan nan nan nan nan
nan nan nan nan nan nan nan nan nan nan nan nan nan nan nan 20 19 21 22 26 27 26 28 25 24 20 19 17 15 14 11 11 9 11 12 13 14 13 15 17 17 15 22 25 23 23 21 23 24 23 nan 30 29 31 33 nan 28 nan nan nan nan nan nan nan nan nan nan nan nan nan nan nan nan nan nan nan nan nan nan nan nan nan nan nan nan
nan nan nan nan nan nan nan nan nan nan nan nan nan nan nan nan 21 21 23 25 25 26 27 25 22 18 15 15 13 12 11 8 9 8 10 10 11 13 15 14 16 17 17 20 21 19 20 23 23 24 23 27 30 30 29 30 28 32 31 nan nan nan nan nan nan nan nan nan nan nan nan nan nan nan nan nan nan nan nan nan nan nan nan nan nan
nan nan nan nan nan nan nan nan nan nan nan nan nan nan nan nan 23 22 23 25 25 25 26 25 23 18 13 11 11 10 10 10 10 8 7 9 10 13 13 14 nan 15 18 18 20 17 22 21 24 24 24 25 29 nan 27 29 31 31 33 nan nan nan nan nan nan nan nan nan nan nan nan nan nan nan nan nan nan nan nan nan nan nan nan nan nan
nan nan nan nan nan nan nan nan nan nan nan nan nan nan nan nan nan nan nan nan 24 25 26 25 23 20 16 10 10 10 11 9 10 10 10 9 10 12 13 11 14 13 15 17 19 19 25 24 24 25 23 24 25 29 28 28 30 32 31 27 nan nan nan nan nan nan nan nan nan nan nan nan nan nan nan nan nan nan nan nan nan nan nan nan nan
nan nan nan nan nan nan nan nan nan nan nan nan nan nan nan nan nan nan nan nan nan 24 24 23 21 20 18 16 13 11 10 10 10 10 10 11 10 10 10 12 13 11 13 14 15 19 22 24 21 23 24 22 24 28 nan 27 27 31 30 nan nan nan 33 nan nan nan nan nan nan nan nan nan nan nan nan nan nan nan nan nan nan nan nan nan nan
nan nan nan nan nan nan nan nan nan nan nan nan nan nan nan nan nan nan nan nan nan nan nan nan nan nan nan 16 14 12 11 10 10 11 11 11 10 9 10 11 12 14 13 13 nan nan 22 21 18 17 21 20 22 27 nan nan 28 29 28 nan nan 28 33 nan nan nan nan nan nan nan nan nan nan nan nan nan nan nan nan nan nan nan nan nan nan
nan nan nan nan nan nan nan nan nan nan nan nan nan nan nan nan nan nan nan nan nan nan nan nan nan nan nan nan nan nan nan nan 11 11 12 12 13 13 12 10 10 12 13 16 nan nan 21 19 19 19 20 21 22 24 26 26 28 29 29 31 nan 31 nan 31 nan nan nan nan nan nan nan nan nan nan nan nan nan nan nan nan nan nan nan nan nan
nan nan nan nan nan nan nan nan nan nan nan nan nan nan nan nan nan nan nan nan nan nan nan nan nan nan nan nan nan nan nan nan nan nan nan nan 14 15 16 14 12 12 13 16 nan nan nan nan 21 20 22 25 25 25 25 28 nan nan 31 32 34 35 nan nan nan nan nan nan nan nan nan nan nan nan nan nan nan nan nan nan nan nan nan nan nan
nan nan nan nan nan nan nan nan nan nan nan nan nan nan nan nan nan nan nan nan nan nan nan nan nan nan nan nan nan nan nan nan nan nan nan nan nan nan nan nan nan nan 15 16 nan nan nan nan nan nan nan 27 26 26 27 32 nan nan nan nan nan 36 34 nan nan nan nan nan nan nan nan nan nan nan nan nan nan nan nan nan nan nan nan nan nan
nan nan nan nan nan nan nan nan nan nan nan nan nan nan nan nan nan nan nan nan nan nan nan nan nan nan nan nan nan nan nan nan nan nan nan nan nan 12 14 17 nan 16 nan nan nan nan nan nan nan nan nan 31 nan 29 30 34 36 nan nan nan 38 37 36 36 37 38 nan nan nan nan nan nan nan nan nan nan nan nan nan nan nan nan nan nan nan
nan nan nan nan nan nan nan nan nan nan nan nan nan nan nan nan nan nan nan nan nan nan nan nan nan nan nan nan nan nan nan nan nan nan nan nan nan 11 13 14 nan nan nan nan nan nan nan nan nan nan nan 31 35 34 37 35 34 32 nan nan 36 36 37 37 36 37 38 36 nan nan nan nan nan nan nan nan nan nan nan nan nan nan nan nan nan
nan nan nan nan nan nan nan nan nan nan nan nan nan nan nan nan nan nan nan nan nan nan nan nan nan nan nan nan nan nan nan nan nan nan nan nan nan nan nan nan nan nan nan nan nan nan nan nan nan nan nan 26 31 37 40 38 37 34 31 32 33 34 35 37 39 39 42 38 37 nan nan nan nan nan nan nan nan nan nan nan nan nan nan nan nan
nan nan nan nan nan nan nan nan nan nan nan nan nan nan nan nan nan nan nan nan nan nan nan nan nan nan nan nan nan nan nan nan nan nan nan nan nan nan nan nan nan nan nan 15 nan nan nan nan 19 21 nan nan nan 29 33 36 36 36 34 32 34 33 34 nan 37 38 41 44 46 42 nan nan nan nan nan nan 34 nan nan nan nan nan nan nan nan
nan nan nan nan nan nan nan nan nan nan nan nan nan nan nan nan nan nan nan nan nan nan nan nan nan nan nan nan nan nan nan nan nan nan nan nan nan nan nan nan nan nan nan nan nan nan nan nan nan nan nan nan nan nan 25 27 31 33 nan nan nan nan nan nan nan 38 42 43 38 37 nan nan nan nan nan nan nan nan nan nan nan nan nan nan nan
nan nan nan nan nan nan nan nan nan nan nan nan nan nan nan nan nan nan nan nan nan nan nan nan nan nan nan nan nan nan nan nan nan nan nan nan nan nan nan nan nan nan nan nan nan nan nan nan nan nan 17 nan nan nan nan 26 nan nan nan nan nan nan 34 nan nan 37 41 44 43 41 37 37 nan nan nan nan nan nan nan nan nan nan nan nan nan
nan nan nan nan nan nan nan nan nan nan nan nan nan nan nan nan nan nan nan nan nan nan nan nan nan nan nan nan nan nan nan nan nan nan nan nan nan nan nan nan nan nan nan nan nan nan nan nan nan nan nan nan nan nan nan nan nan nan nan nan nan nan nan nan nan nan 42 43 43 43 41 40 nan nan nan nan nan nan nan nan nan nan nan nan nan
nan nan nan nan nan nan nan nan nan nan nan nan nan nan nan nan nan nan nan nan nan nan nan nan nan nan nan nan nan nan nan nan nan nan nan nan nan nan nan nan nan nan nan nan nan nan nan nan nan nan nan nan nan nan nan nan nan nan nan nan nan nan nan nan nan nan 40 42 42 40 39 39 nan nan nan nan nan nan nan nan nan nan nan nan nan
nan nan nan nan nan nan nan nan nan nan nan nan nan nan nan nan nan nan nan nan nan nan nan nan nan nan nan nan nan nan nan nan nan nan nan nan nan nan nan nan nan nan nan nan nan nan nan nan nan nan nan nan nan nan nan nan nan nan nan nan nan nan nan nan nan nan 33 35 36 37 38 40 nan nan nan nan nan nan nan nan nan nan nan nan nan
nan nan nan nan nan nan nan nan nan nan nan nan nan nan nan nan nan nan nan nan nan nan nan nan nan nan nan nan nan nan nan nan nan nan nan nan nan nan nan nan nan nan nan nan nan nan nan nan nan nan nan nan nan nan nan nan nan nan nan nan nan nan nan 24 nan nan nan nan 35 37 39 42 40 nan nan nan nan nan nan nan nan nan nan nan nan
nan nan nan nan nan nan nan nan nan nan nan nan nan nan nan nan nan nan nan nan nan nan nan nan nan nan nan nan nan nan nan nan nan nan nan nan nan nan nan nan nan nan nan nan nan nan nan nan nan nan nan nan nan nan nan nan nan nan nan nan nan nan nan nan nan nan nan nan nan 35 38 40 38 38 nan nan nan nan nan nan nan nan nan nan nan
nan nan nan nan nan nan nan nan nan nan nan nan nan nan nan nan nan nan nan nan nan nan nan nan nan nan nan nan nan nan nan nan nan nan nan nan nan nan nan nan nan nan nan nan nan nan nan nan nan nan nan nan nan nan nan nan nan nan nan nan nan nan nan nan nan nan nan nan nan 37 41 41 42 43 nan nan nan nan nan nan nan nan nan nan nan
nan nan nan nan nan nan nan nan nan nan nan nan nan nan nan nan nan nan nan nan nan nan nan nan nan nan nan nan nan nan nan nan nan nan nan nan nan nan nan nan nan nan nan nan nan nan nan nan nan nan nan nan nan nan nan nan nan nan nan nan nan nan nan nan nan nan nan nan nan 33 37 40 45 49 47 nan nan nan nan nan nan nan nan nan nan
nan nan nan nan nan nan nan nan nan nan nan nan nan nan nan nan nan nan nan nan nan nan nan nan nan nan nan nan nan nan nan nan nan nan nan nan nan nan nan nan nan nan nan nan nan nan nan nan nan nan nan nan nan nan nan nan nan nan nan nan nan nan nan nan nan nan nan nan nan nan nan 38 42 48 nan nan nan nan nan nan nan nan nan nan nan
nan nan nan nan nan nan nan nan nan nan nan nan nan nan nan nan nan nan nan nan nan nan nan nan nan nan nan nan nan nan nan nan nan nan nan nan nan nan nan nan nan nan nan nan nan nan nan nan nan nan nan nan nan nan nan nan nan nan nan nan nan nan nan nan nan nan nan nan nan nan nan nan nan nan nan nan nan nan nan nan nan nan nan nan nan
nan nan nan nan nan nan nan nan nan nan nan nan nan nan nan nan nan nan nan nan nan nan nan nan nan nan nan nan nan nan nan nan nan nan nan nan nan nan nan nan nan nan nan nan nan nan nan nan nan nan nan nan nan nan nan nan nan nan nan nan nan nan nan nan nan nan nan nan nan nan nan nan nan nan nan nan nan nan nan nan nan nan nan nan nan
nan nan nan nan nan nan nan nan nan nan nan nan nan nan nan nan nan nan nan nan nan nan nan nan nan nan nan nan nan nan nan nan nan nan nan nan nan nan nan nan nan nan nan nan nan nan nan nan nan nan nan nan nan nan nan nan nan nan nan nan nan nan nan nan nan nan nan nan nan nan nan nan nan nan nan nan nan nan nan nan nan nan nan nan nan
Wind_Direction
323 320 321 320 319 318 320 325 329 331 333 336 333 330 329 327 325 323 320 316 313 307 299 299 302 303 305 306 305 303 303 300 293 290 288 287 292 297 312 302 290 293 303 298 292 292 292 nan nan nan nan nan nan nan nan nan nan nan nan nan nan nan nan nan nan nan nan nan nan nan nan nan nan nan nan nan nan nan nan nan 290 286 290 298 301
319 321 322 320 320 319 320 324 326 328 332 335 329 329 329 329 328 328 327 324 319 314 307 305 305 303 302 302 303 303 301 300 296 293 291 290 292 292 305 305 293 292 296 289 295 294 296 nan 298 nan nan nan nan nan nan nan nan nan nan nan nan nan nan nan nan nan nan nan nan nan nan nan nan nan nan nan nan nan nan nan 295 287 290 298 298
319 316 316 316 315 315 316 318 320 320 324 328 324 324 326 327 329 330 330 326 324 321 320 314 309 305 300 299 299 299 299 297 296 295 296 294 294 296 300 310 297 290 289 285 292 302 297 289 297 298 297 nan nan nan nan nan nan nan nan nan nan nan nan nan nan nan nan nan nan nan nan nan nan nan nan nan nan nan nan nan nan 292 293 296 300
312 310 311 311 311 311 313 314 313 313 318 322 325 325 327 330 330 330 332 332 328 327 325 322 319 311 304 301 299 298 296 294 293 294 295 297 298 300 303 301 304 291 285 283 293 289 300 300 288 300 295 nan 309 nan 300 303 nan nan nan nan nan nan nan nan nan nan nan nan nan nan nan nan nan nan nan nan nan nan nan nan nan 296 294 296 299
305 307 309 309 308 308 309 309 308 311 318 321 324 326 326 327 324 321 324 324 325 326 324 322 321 316 308 300 295 297 295 292 290 289 291 294 296 300 308 307 289 290 282 282 284 281 292 301 299 301 298 nan nan 290 297 305 nan nan nan nan nan nan nan nan nan nan nan nan nan nan nan nan nan nan nan nan nan nan nan nan nan nan 294 296 298
304 307 308 308 307 307 305 306 305 307 312 312 314 317 319 320 321 320 320 321 323 320 319 321 317 311 307 301 294 289 289 291 288 287 287 291 294 297 303 300 291 275 274 290 288 286 285 288 298 299 295 292 nan nan 298 307 nan nan nan nan nan nan nan nan nan nan nan nan nan nan nan nan nan nan nan nan nan nan nan nan nan nan nan 299 298
305 308 307 307 309 309 308 308 308 310 311 311 313 315 317 318 320 320 319 321 321 321 321 319 317 314 310 307 300 293 289 288 286 284 285 287 290 294 295 294 286 280 271 266 285 291 289 292 282 271 285 290 nan nan 307 nan nan nan nan nan nan nan nan nan nan nan nan nan nan nan nan nan nan nan nan nan nan nan nan nan nan nan nan nan 304
308 309 309 308 309 310 310 310 310 312 313 314 315 317 316 316 317 319 318 320 319 319 317 318 318 318 314 308 302 297 291 288 287 287 285 283 285 287 290 292 289 282 276 268 267 281 293 291 281 263 258 294 nan nan nan nan nan nan nan nan nan nan nan nan nan nan nan nan nan nan nan nan nan nan nan nan nan nan nan nan nan nan nan nan nan
311 311 310 309 309 310 309 309 311 314 318 319 320 317 317 317 316 316 320 318 317 316 316 315 315 316 315 311 304 299 297 293 290 288 286 285 282 281 284 289 288 283 275 270 267 266 283 288 280 271 261 268 nan nan nan nan nan nan nan nan nan nan nan nan nan nan nan nan nan nan nan nan nan nan nan nan nan nan nan nan nan nan nan nan nan
310 309 307 308 310 309 308 309 311 315 319 321 323 321 320 320 319 319 320 320 319 318 316 314 313 313 313 313 309 302 297 295 293 291 289 285 283 285 284 284 287 290 279 267 264 262 261 279 278 272 272 264 279 nan nan nan nan nan nan nan nan nan nan nan nan nan nan nan nan nan nan nan nan nan nan nan nan nan nan nan nan nan nan nan nan
303 306 308 308 309 308 307 306 310 315 319 323 324 324 325 324 326 326 325 325 323 321 317 314 314 313 312 310 308 309 302 295 292 291 290 288 284 283 282 283 283 288 286 269 262 262 260 257 268 272 nan nan 273 282 nan nan nan nan nan nan nan nan nan nan nan nan nan nan nan nan nan nan nan nan nan nan nan nan nan nan nan nan nan nan nan
303 307 310 309 309 307 305 305 310 316 321 324 325 323 325 327 330 329 328 327 326 323 320 317 316 315 312 309 308 306 305 299 293 290 289 290 286 281 282 285 290 293 289 272 261 262 256 256 257 264 268 nan nan nan nan nan nan nan nan nan nan nan nan nan nan nan nan nan nan nan nan nan nan nan nan nan nan nan nan nan nan nan nan nan nan
304 306 306 306 307 305 304 308 311 316 320 323 324 326 327 328 329 327 327 329 326 323 323 319 317 312 308 308 305 304 302 300 296 289 288 287 284 281 278 281 286 285 282 276 268 263 258 255 256 260 268 nan nan nan nan nan nan nan nan nan nan nan nan nan nan nan nan nan nan nan nan nan nan nan nan nan nan nan nan nan nan nan nan nan nan
301 301 302 302 303 304 306 309 310 317 323 327 331 332 333 332 330 329 327 326 323 321 320 317 315 313 305 300 300 299 298 296 296 290 284 280 282 286 282 279 280 279 274 272 268 262 261 259 257 259 264 269 nan nan nan nan nan nan nan nan nan nan nan nan nan nan nan nan nan nan nan nan nan nan nan nan nan nan nan nan nan nan nan nan nan
295 295 298 299 301 304 306 308 312 319 326 329 329 331 332 335 335 331 330 328 330 328 326 324 320 313 310 303 298 288 291 294 291 290 283 280 282 287 282 276 275 276 276 274 275 269 262 262 261 260 262 266 nan nan nan nan nan nan nan nan nan nan nan nan nan nan nan nan nan nan nan nan nan nan nan nan nan nan nan nan nan nan nan nan nan
291 292 296 298 301 304 305 308 312 318 321 325 328 332 332 332 333 334 333 334 332 331 330 327 324 319 311 309 299 292 280 281 282 284 286 284 283 282 280 276 271 272 274 281 283 277 265 257 nan 262 263 260 nan nan nan nan nan nan nan nan nan nan nan nan nan nan nan nan nan nan nan nan nan nan nan nan nan nan nan nan nan nan nan nan nan
290 290 293 294 297 301 303 306 310 314 319 322 324 326 329 332 334 334 336 334 334 333 332 328 327 323 320 308 305 299 291 272 268 273 281 279 281 281 279 277 272 269 274 279 281 279 274 268 263 259 257 254 nan nan nan nan nan nan nan nan nan nan nan nan nan nan nan nan nan nan nan nan nan nan nan nan nan nan nan nan nan nan nan nan nan
287 287 nan nan nan nan nan 299 302 307 313 317 321 325 330 333 334 335 336 335 335 332 333 327 327 325 325 319 306 297 284 276 267 262 272 274 272 275 277 279 274 271 271 276 284 282 278 272 266 263 262 259 256 nan nan nan nan nan nan nan nan nan nan nan nan nan nan nan nan nan nan nan nan nan nan nan nan nan nan nan nan nan nan nan nan
nan nan nan nan nan nan nan nan nan nan nan 315 319 324 328 330 331 335 337 335 335 337 337 331 322 323 322 316 316 311 299 285 273 261 252 266 274 271 272 276 276 272 269 274 281 277 276 272 267 262 255 252 253 nan nan nan nan nan nan nan nan nan nan nan nan nan nan nan nan nan nan nan nan nan nan nan nan nan nan nan nan nan nan nan nan
nan nan nan nan nan nan nan nan nan nan nan nan nan nan 323 325 328 334 338 336 336 336 336 330 323 317 313 309 304 301 300 291 283 266 249 244 256 268 271 270 275 275 271 270 277 274 nan nan 269 259 251 251 247 253 nan nan nan nan nan nan nan nan nan nan nan nan nan nan nan nan nan nan nan nan nan nan nan nan nan nan nan nan nan nan nan
nan nan nan nan nan nan nan nan nan nan nan nan 314 317 318 322 327 332 337 336 336 338 339 333 325 323 317 312 306 304 303 298 283 269 256 247 245 256 265 272 274 277 272 268 268 274 284 285 nan 261 253 nan 245 nan nan nan nan nan nan nan nan nan nan nan nan nan nan nan nan nan nan nan nan nan nan nan nan nan nan nan nan nan nan nan nan
nan nan nan nan nan nan nan nan nan 300 303 304 307 309 312 318 326 333 336 336 336 339 337 331 327 326 324 314 306 299 293 287 277 268 259 255 240 242 255 268 275 277 275 270 270 276 287 294 287 nan nan 248 245 244 nan nan nan nan nan nan nan nan nan nan nan nan nan nan nan nan nan nan nan nan nan nan nan nan nan nan nan nan nan nan nan
nan nan nan nan nan nan 287 nan nan 294 295 297 300 305 311 316 323 330 334 336 337 340 341 337 329 325 328 321 316 309 297 285 275 264 257 249 248 250 255 263 269 269 278 275 268 279 288 297 298 nan nan 248 246 245 nan nan nan nan nan nan nan nan nan nan nan nan nan nan nan nan 308 309 310 nan nan nan nan nan nan nan nan nan nan nan nan
nan nan nan nan nan nan 283 nan 286 287 291 295 300 306 311 315 321 325 330 334 337 340 342 340 330 326 nan 320 322 321 313 295 272 259 257 256 259 255 256 261 269 270 265 270 274 278 283 297 300 nan nan 252 248 243 nan nan nan nan nan nan nan nan nan nan nan nan nan nan nan nan nan nan nan nan nan nan nan nan nan nan nan nan nan nan nan
nan nan nan nan nan nan nan nan nan nan nan nan 301 304 308 316 321 327 330 332 335 339 342 341 334 331 327 326 327 326 319 306 286 258 246 250 254 249 256 260 261 261 267 267 269 276 279 290 297 283 nan 252 249 242 nan nan 253 nan nan nan nan nan nan nan nan nan nan nan nan nan nan nan 299 309 306 nan nan nan nan nan nan nan nan nan nan
nan nan nan nan nan nan nan nan nan nan nan nan nan nan nan 318 321 325 328 329 332 334 342 343 338 335 336 334 331 327 318 310 295 274 259 260 263 257 250 259 267 260 262 268 272 270 278 285 294 289 nan 255 247 240 240 nan 248 nan nan nan nan nan nan nan nan nan nan nan nan nan nan nan nan nan nan nan nan nan nan nan nan nan nan nan nan
nan nan nan nan nan nan nan nan nan nan nan nan nan nan nan nan 325 324 326 328 331 334 338 343 336 326 327 333 332 326 319 309 302 291 280 270 262 255 257 263 268 272 269 273 276 291 282 286 298 295 288 266 249 239 240 244 252 264 272 nan nan nan nan nan nan nan nan nan nan nan nan nan nan nan nan nan nan nan nan nan nan nan nan nan nan
nan nan nan nan nan nan nan nan nan nan nan nan nan nan nan nan 324 323 321 326 330 332 335 342 340 333 328 321 322 315 313 311 308 304 288 275 268 268 270 273 nan 260 265 267 279 285 289 285 288 294 292 274 249 nan 241 247 252 262 266 nan nan nan nan nan nan nan nan nan nan nan nan nan nan nan nan nan nan nan nan nan nan nan nan nan nan
nan nan nan nan nan nan nan nan nan nan nan nan nan nan nan nan nan nan nan nan 327 329 329 334 338 342 333 315 311 315 307 300 301 297 286 271 272 275 280 278 271 264 260 264 276 282 281 290 284 281 283 273 250 237 240 248 253 257 257 260 nan nan nan nan nan nan nan nan nan nan nan nan nan nan nan nan nan nan nan nan nan nan nan nan nan
nan nan nan nan nan nan nan nan nan nan nan nan nan nan nan nan nan nan nan nan nan 323 322 326 331 338 335 324 317 309 296 293 289 279 274 274 272 275 274 277 277 273 271 270 273 284 280 292 293 270 269 265 249 240 nan 249 258 259 251 nan nan nan 275 nan nan nan nan nan nan nan nan nan nan nan nan nan nan nan nan nan nan nan nan nan nan
nan nan nan nan nan nan nan nan nan nan nan nan nan nan nan nan nan nan nan nan nan nan nan nan nan nan nan 330 317 313 301 289 286 282 282 275 271 273 275 278 281 292 291 287 nan nan 287 296 300 274 266 269 257 246 nan nan 253 259 255 nan nan 263 271 nan nan nan nan nan nan nan nan nan nan nan nan nan nan nan nan nan nan nan nan nan nan
nan nan nan nan nan nan nan nan nan nan nan nan nan nan nan nan nan nan nan nan nan nan nan nan nan nan nan nan nan nan nan nan 291 283 280 278 272 259 261 265 277 291 300 290 nan nan 289 291 286 278 270 272 268 259 253 250 251 264 257 255 nan 264 nan 258 nan nan nan nan nan nan nan nan nan nan nan nan nan nan nan nan nan nan nan nan nan
nan nan nan nan nan nan nan nan nan nan nan nan nan nan nan nan nan nan nan nan nan nan nan nan nan nan nan nan nan nan nan nan nan nan nan nan 268 262 262 261 265 276 287 293 nan nan nan nan 272 272 269 267 263 264 260 255 nan nan 257 257 260 261 nan nan nan nan nan nan nan nan nan nan nan nan nan nan nan nan nan nan nan nan nan nan nan
nan nan nan nan nan nan nan nan nan nan nan nan nan nan nan nan nan nan nan nan nan nan nan nan nan nan nan nan nan nan nan nan nan nan nan nan nan nan nan nan nan nan 279 290 nan nan nan nan nan nan nan 265 258 263 262 258 nan nan nan nan nan 262 262 nan nan nan nan nan nan nan nan nan nan nan nan nan nan nan nan nan nan nan nan nan nan
nan nan nan nan nan nan nan nan nan nan nan nan nan nan nan nan nan nan nan nan nan nan nan nan nan nan nan nan nan nan nan nan nan nan nan nan nan 288 257 251 nan 264 nan nan nan nan nan nan nan nan nan 260 nan 254 259 255 258 nan nan nan 261 262 260 260 256 250 nan nan nan nan nan nan nan nan nan nan nan nan nan nan nan nan nan nan nan
nan nan nan nan nan nan nan nan nan nan nan nan nan nan nan nan nan nan nan nan nan nan nan nan nan nan nan nan nan nan nan nan nan nan nan nan nan 292 276 259 nan nan nan nan nan nan nan nan nan nan nan 264 252 248 249 253 258 265 nan nan 258 260 258 256 259 255 253 259 nan nan nan nan nan nan nan nan nan nan nan nan nan nan nan nan nan
nan nan nan nan nan nan nan nan nan nan nan nan nan nan nan nan nan nan nan nan nan nan nan nan nan nan nan nan nan nan nan nan nan nan nan nan nan nan nan nan nan nan nan nan nan nan nan nan nan nan nan 269 256 249 250 251 256 263 264 256 254 256 255 254 257 258 258 264 264 nan nan nan nan nan nan nan nan nan nan nan nan nan nan nan nan
nan nan nan nan nan nan nan nan nan nan nan nan nan nan nan nan nan nan nan nan nan nan nan nan nan nan nan nan nan nan nan nan nan nan nan nan nan nan nan nan nan nan nan 276 nan nan nan nan 271 272 nan nan nan 255 253 254 256 258 257 249 247 251 253 nan 257 259 253 248 245 250 nan nan nan nan nan nan 271 nan nan nan nan nan nan nan nan
nan nan nan nan nan nan nan nan nan nan nan nan nan nan nan nan nan nan nan nan nan nan nan nan nan nan nan nan nan nan nan nan nan nan nan nan nan nan nan nan nan nan nan nan nan nan nan nan nan nan nan nan nan nan 255 255 255 256 nan nan nan nan nan nan nan 258 254 249 251 260 nan nan nan nan nan nan nan nan nan nan nan nan nan nan nan
nan nan nan nan nan nan nan nan nan nan nan nan nan nan nan nan nan nan nan nan nan nan nan nan nan nan nan nan nan nan nan nan nan nan nan nan nan nan nan nan nan nan nan nan nan nan nan nan nan nan 280 nan nan nan nan 252 nan nan nan nan nan nan 248 nan nan 260 256 253 249 245 248 253 nan nan nan nan nan nan nan nan nan nan nan nan nan
nan nan nan nan nan nan nan nan nan nan nan nan nan nan nan nan nan nan nan nan nan nan nan nan nan nan nan nan nan nan nan nan nan nan nan nan nan nan nan nan nan nan nan nan nan nan nan nan nan nan nan nan nan nan nan nan nan nan nan nan nan nan nan nan nan nan 249 250 246 246 247 250 nan nan nan nan nan nan nan nan nan nan nan nan nan
nan nan nan nan nan nan nan nan nan nan nan nan nan nan nan nan nan nan nan nan nan nan nan nan nan nan nan nan nan nan nan nan nan nan nan nan nan nan nan nan nan nan nan nan nan nan nan nan nan nan nan nan nan nan nan nan nan nan nan nan nan nan nan nan nan nan 245 243 246 247 245 250 nan nan nan nan nan nan nan nan nan nan nan nan nan
nan nan nan nan nan nan nan nan nan nan nan nan nan nan nan nan nan nan nan nan nan nan nan nan nan nan nan nan nan nan nan nan nan nan nan nan nan nan nan nan nan nan nan nan nan nan nan nan nan nan nan nan nan nan nan nan nan nan nan nan nan nan nan nan nan nan 251 251 247 249 249 251 nan nan nan nan nan nan nan nan nan nan nan nan nan
nan nan nan nan nan nan nan nan nan nan nan nan nan nan nan nan nan nan nan nan nan nan nan nan nan nan nan nan nan nan nan nan nan nan nan nan nan nan nan nan nan nan nan nan nan nan nan nan nan nan nan nan nan nan nan nan nan nan nan nan nan nan nan 251 nan nan nan nan 253 250 251 254 255 nan nan nan nan nan nan nan nan nan nan nan nan
nan nan nan nan nan nan nan nan nan nan nan nan nan nan nan nan nan nan nan nan nan nan nan nan nan nan nan nan nan nan nan nan nan nan nan nan nan nan nan nan nan nan nan nan nan nan nan nan nan nan nan nan nan nan nan nan nan nan nan nan nan nan nan nan nan nan nan nan nan 251 252 255 260 260 nan nan nan nan nan nan nan nan nan nan nan
nan nan nan nan nan nan nan nan nan nan nan nan nan nan nan nan nan nan nan nan nan nan nan nan nan nan nan nan nan nan nan nan nan nan nan nan nan nan nan nan nan nan nan nan nan nan nan nan nan nan nan nan nan nan nan nan nan nan nan nan nan nan nan nan nan nan nan nan nan 256 249 251 254 258 nan nan nan nan nan nan nan nan nan nan nan
nan nan nan nan nan nan nan nan nan nan nan nan nan nan nan nan nan nan nan nan nan nan nan nan nan nan nan nan nan nan nan nan nan nan nan nan nan nan nan nan nan nan nan nan nan nan nan nan nan nan nan nan nan nan nan nan nan nan nan nan nan nan nan nan nan nan nan nan nan 254 255 251 250 253 247 nan nan nan nan nan nan nan nan nan nan
nan nan nan nan nan nan nan nan nan nan nan nan nan nan nan nan nan nan nan nan nan nan nan nan nan nan nan nan nan nan nan nan nan nan nan nan nan nan nan nan nan nan nan nan nan nan nan nan nan nan nan nan nan nan nan nan nan nan nan nan nan nan nan nan nan nan nan nan nan nan nan 250 250 258 nan nan nan nan nan nan nan nan nan nan nan
nan nan nan nan nan nan nan nan nan nan nan nan nan nan nan nan nan nan nan nan nan nan nan nan nan nan nan nan nan nan nan nan nan nan nan nan nan nan nan nan nan nan nan nan nan nan nan nan nan nan nan nan nan nan nan nan nan nan nan nan nan nan nan nan nan nan nan nan nan nan nan nan nan nan nan nan nan nan nan nan nan nan nan nan nan
nan nan nan nan nan nan nan nan nan nan nan nan nan nan nan nan nan nan nan nan nan nan nan nan nan nan nan nan nan nan nan nan nan nan nan nan nan nan nan nan nan nan nan nan nan nan nan nan nan nan nan nan nan nan nan nan nan nan nan nan nan nan nan nan nan nan nan nan nan nan nan nan nan nan nan nan nan nan nan nan nan nan nan nan nan
nan nan nan nan nan nan nan nan nan nan nan nan nan nan nan nan nan nan nan nan nan nan nan nan nan nan nan nan nan nan nan nan nan nan nan nan nan nan nan nan nan nan nan nan nan nan nan nan nan nan nan nan nan nan nan nan nan nan nan nan nan nan nan nan nan nan nan nan nan nan nan nan nan nan nan nan nan nan nan nan nan nan nan nan nan